Location: Praha
(50.0830°N, 14.4670°E)
Time: 21:57:51
(UTC+01:00)

ISS - Pass Details

Date: 03 November 2019
Orbit: 412 x 421 km, 51.6° (Epoch: 15 November)

Event Time Altitude Azimuth Distance (km) Brightness Sun altitude
Exits shadow 04:12:33 28° 73° (ENE) 837 -1.6 -26.3°
Drops below altitude 10° 04:14:16 10° 75° (ENE) 1,509 0.1 -26.0°
Sets 04:16:22 0° 76° (ENE) 2,373 1.4 -25.7°
